Oslo, Norway

3:13 PM CET on December 05, 2016 (GMT +0100)
Oslo

Weather History for 01384 - September, 2013

Change the Weather History Date:

Sunday, September 1, 2013

  Actual Average Record
Temperature  
Mean Temperature 51 °F -  
Max Temperature 60 °F - - ()
Min Temperature 42 °F - - ()
Degree Days  
Heating Degree Days 14    
Growing Degree Days 1 (Base 50)    
Moisture  
Dew Point 38 °F    
Average Humidity 58    
Maximum Humidity 71    
Minimum Humidity 36    
Precipitation  
Precipitation 0.00 in - - ()
Sea Level Pressure  
Sea Level Pressure 29.72 in    
Wind  
Wind Speed 4 mph ()    
Max Wind Speed 11 mph    
Max Gust Speed -    
Visibility 6.2 miles    
Events      
T = Trace of Precipitation, MM = Missing Value Source: Averaged Metar Reports

Daily Weather History Graph

Daily Weather History Graph

Search for Another Location

Airport or City:

Trip Planner

Search our weather history database for the weather conditions in past years. The results will help you decide how hot, cold, wet, or windy it might be!

Date:

Astronomy

Sep. 01, 2013 Rise Set
Actual Time 6:10 AM CEST 8:19 PM CEST
Civil Twilight 5:24 AM CEST 9:04 PM CEST
Nautical Twilight 4:25 AM CEST 10:03 PM CEST
Astronomical Twilight 3:07 AM CEST 11:18 PM CEST
Moon 1:35 AM CEST (9/1) 6:20 PM CEST (9/1)
Length of Visible Light 15h 39m
Length of Day
14h 09m
Waning Crescent, 15% of the Moon is Illuminated
Sep 1
Waning Crescent
Sep 5
New
Sep 12
First Quarter
Sep 19
Full
Sep 27
Last Quarter

Hourly Weather History & Observations

Time (CEST) Temp. Windchill Dew Point Humidity Pressure Visibility Wind Dir Wind Speed Gust Speed Precip Events Conditions
12:20 AM 48.2 °F - 39.2 °F 71% 29.83 in - WNW 4.6 mph - N/A   Clear
12:50 AM 50.0 °F - 39.2 °F 66% 29.83 in 6.2 mi WNW 3.5 mph - N/A   Mostly Cloudy
1:20 AM 48.2 °F - 39.2 °F 71% 29.83 in 6.2 mi NNW 3.5 mph - N/A   Partly Cloudy
1:50 AM 48.2 °F - 37.4 °F 66% 29.83 in 6.2 mi Variable 2.3 mph - N/A   Scattered Clouds
2:00 AM 49 °F - 36 °F 51%  in 31 mi NW 4.5 mph - -   Partly Cloudy
2:20 AM 48.2 °F - 35.6 °F 62% 29.80 in 6.2 mi NW 3.5 mph - N/A   Partly Cloudy
2:50 AM 46.4 °F 42.9 °F 35.6 °F 66% 29.80 in - NW 6.9 mph - N/A   Clear
3:20 AM 46.4 °F - 33.8 °F 62% 29.80 in - Variable 2.3 mph - N/A   Clear
3:50 AM 44.6 °F - 33.8 °F 66% 29.80 in - Variable 1.2 mph - N/A   Clear
4:20 AM 44.6 °F - 33.8 °F 66% 29.80 in - Variable 2.3 mph - N/A   Clear
4:50 AM 42.8 °F 41.1 °F 33.8 °F 70% 29.80 in - NE 3.5 mph - N/A   Clear
5:20 AM 42.8 °F 39.3 °F 33.8 °F 70% 29.80 in - NW 5.8 mph - N/A   Clear
5:50 AM 44.6 °F 43.1 °F 32.0 °F 61% 29.80 in - NNW 3.5 mph - N/A   Clear
6:20 AM 42.8 °F - 32.0 °F 66% 29.80 in - Variable 2.3 mph - N/A   Clear
6:50 AM 42.8 °F 40.1 °F 32.0 °F 66% 29.80 in - NNW 4.6 mph - N/A   Clear
7:20 AM 44.6 °F 43.1 °F 32.0 °F 61% 29.80 in - WNW 3.5 mph - N/A   Clear
7:50 AM 44.6 °F 43.1 °F 33.8 °F 66% 29.77 in - NNW 3.5 mph - N/A   Clear
8:00 AM 47 °F - 34 °F 48%  in 37 mi West 4.5 mph - -  
8:20 AM 46.4 °F 45.2 °F 33.8 °F 62% 29.77 in - WNW 3.5 mph - N/A   Clear
8:50 AM 50.0 °F - 32.0 °F 50% 29.77 in - Variable 2.3 mph - N/A   Clear
9:20 AM 51.8 °F - 33.8 °F 50% 29.77 in - SSE 4.6 mph - N/A   Clear
9:50 AM 50.0 °F - 35.6 °F 58% 29.77 in - SSW 5.8 mph - N/A   Clear
10:20 AM 50.0 °F - 37.4 °F 62% 29.77 in - South 4.6 mph - N/A   Clear
10:50 AM 51.8 °F - 35.6 °F 54% 29.77 in - SW 5.8 mph - N/A   Clear
11:20 AM 55.4 °F - 39.2 °F 54% 29.74 in - SSW 5.8 mph - N/A   Clear
11:50 AM 55.4 °F - 37.4 °F 51% 29.74 in - South 8.1 mph - N/A   Clear
12:20 PM 55.4 °F - 35.6 °F 47% 29.74 in - SW 10.4 mph - N/A   Clear
12:50 PM 57.2 °F - 35.6 °F 44% 29.71 in - WSW 8.1 mph - N/A   Clear
1:20 PM 57.2 °F - 35.6 °F 44% 29.71 in 6.2 mi West 6.9 mph - N/A   Scattered Clouds
1:50 PM 57.2 °F - 37.4 °F 48% 29.71 in 6.2 mi WSW 6.9 mph - N/A   Mostly Cloudy
2:00 PM 57 °F - 37 °F 36%  in 40 mi WSW 11.2 mph - -   Partly Cloudy
2:20 PM 57.2 °F - 37.4 °F 48% 29.68 in - WSW 8.1 mph - N/A   Clear
2:50 PM 57.2 °F - 35.6 °F 44% 29.68 in - WSW 6.9 mph - N/A   Clear
3:20 PM 59.0 °F - 39.2 °F 48% 29.68 in - WNW 5.8 mph - N/A   Clear
3:50 PM 60.8 °F - 39.2 °F 45% 29.68 in - West 8.1 mph - N/A   Clear
4:20 PM 59.0 °F - 37.4 °F 45% 29.65 in - WSW 8.1 mph - N/A   Clear
4:50 PM 59.0 °F - 39.2 °F 48% 29.65 in - WSW 6.9 mph - N/A   Clear
5:20 PM 59.0 °F - 39.2 °F 48% 29.65 in - SW 5.8 mph - N/A   Clear
5:50 PM 59.0 °F - 39.2 °F 48% 29.65 in - SW 6.9 mph - N/A   Clear
6:20 PM 57.2 °F - 39.2 °F 51% 29.62 in - SW 5.8 mph - N/A   Clear
6:50 PM 57.2 °F - 44.6 °F 63% 29.62 in - SSW 9.2 mph - N/A   Clear
7:20 PM 55.4 °F - 44.6 °F 67% 29.62 in - SSW 8.1 mph - N/A   Clear
7:50 PM 55.4 °F - 44.6 °F 67% 29.62 in 6.2 mi WSW 3.5 mph - N/A   Unknown
8:00 PM 56 °F - 44 °F 55%  in 34 mi WSW 6.7 mph - -   Partly Cloudy
8:20 PM 55.4 °F - 41.0 °F 58% 29.62 in 6.2 mi WSW 3.5 mph - N/A   Unknown
8:50 PM 55.4 °F - 41.0 °F 58% 29.62 in 6.2 mi West 4.6 mph - N/A   Unknown
9:20 PM 53.6 °F - 42.8 °F 67% 29.62 in 6.2 mi WNW 3.5 mph - N/A   Unknown
9:50 PM 53.6 °F - 42.8 °F 67% 29.62 in 6.2 mi WNW 3.5 mph - N/A   Unknown
10:20 PM 51.8 °F - 42.8 °F 71% 29.62 in 6.2 mi West 3.5 mph - N/A   Unknown
10:50 PM 51.8 °F - 42.8 °F 71% 29.62 in - Variable 2.3 mph - N/A   Clear
11:20 PM 51.8 °F - 42.8 °F 71% 29.59 in - WSW 3.5 mph - N/A   Clear
11:50 PM 51.8 °F - 42.8 °F 71% 29.59 in - Variable 2.3 mph - N/A   Clear